GW0019 Weather Reports


time (UTC)temp
F
wind
direction
speed
knots
gust
knots
rain 1hr
in
rain 24hr
in
rain mn
in
humidity
%
barometer
mb
20260903231253 97 216 4.3 5.2 0.00 0.00 0.00 77 1015.8
20260903230748 97 216 4.3 5.2 0.00 0.00 0.00 77 1016.2
20260903230248 97 216 4.3 5.2 0.00 0.00 0.00 77 1016.0
20260903225744 97 216 4.3 5.2 0.00 0.00 0.00 77 1015.7
20260903225241 97 216 4.3 5.2 0.00 0.00 0.00 77 1015.7
20260903224737 97 216 4.3 5.2 0.00 0.00 0.00 77 1015.8
20260903224233 97 216 4.3 5.2 0.00 0.00 0.00 77 1015.8
20260903223727 97 216 4.3 5.2 0.00 0.00 0.00 77 1015.8
20260903223226 97 216 4.3 5.2 0.00 0.00 0.00 77 1015.7
20260903222721 97 162 2.6 7.8 0.00 0.00 0.00 77 1015.7
20260903222220 96 222 4.3 5.2 0.00 0.00 0.00 77 1016.0
20260903221715 97 195 1.7 7.8 0.00 0.00 0.00 77 1015.8
20260903221214 96 215 5.2 8.7 0.00 0.00 0.00 77 1016.0
20260903220712 96 211 8.7 8.7 0.00 0.00 0.00 77 1016.0
20260903220208 96 211 8.7 8.7 0.00 0.00 0.00 77 1016.0
20260903215706 96 211 8.7 8.7 0.00 0.00 0.00 77 1016.1
20260903215202 96 198 7.8 7.8 0.00 0.00 0.00 77 1016.0
20260903214700 96 198 7.8 7.8 0.00 0.00 0.00 77 1016.0
20260903214156 98 255 7.0 7.0 0.00 0.00 0.00 77 1016.1
20260903213650 98 255 7.0 7.0 0.00 0.00 0.00 77 1016.1
20260903213147 97 159 6.1 6.1 0.00 0.00 0.00 77 1016.1
20260903212642 96 165 2.6 3.5 0.00 0.00 0.00 77 1016.4
20260903212137 96 165 2.6 3.5 0.00 0.00 0.00 77 1016.3
20260903211632 95 200 9.6 10.4 0.00 0.00 0.00 77 1016.3
20260903211129 95 200 9.6 10.4 0.00 0.00 0.00 77 1016.2
20260903210624 95 201 3.5 3.5 0.00 0.00 0.00 77 1016.5
20260903210120 96 191 4.3 8.7 0.00 0.00 0.00 77 1016.4
20260903205619 96 206 1.7 7.0 0.00 0.00 0.00 77 1016.5
20260903205113 96 206 1.7 7.0 0.00 0.00 0.00 77 1016.5
20260903204609 96 212 6.1 7.0 0.00 0.00 0.00 77 1016.5
20260903204104 97 204 8.7 9.6 0.00 0.00 0.00 77 1016.5
20260903203559 97 208 2.6 3.5 0.00 0.00 0.00 77 1016.4
20260903203054 96 209 6.1 7.0 0.00 0.00 0.00 77 1016.9
20260903202550 96 209 6.1 7.0 0.00 0.00 0.00 77 1016.6
20260903202045 96 209 6.1 7.0 0.00 0.00 0.00 77 1016.9
20260903201539 96 209 6.1 7.0 0.00 0.00 0.00 77 1016.6
20260903201038 95 200 5.2 6.1 0.00 0.00 0.00 77 1016.7
20260903200533 95 200 5.2 6.1 0.00 0.00 0.00 77 1016.9
20260903200029 95 200 5.2 7.8 0.00 0.00 0.00 77 1016.9
20260903195525 96 202 7.8 9.6 0.00 0.00 0.00 77 1017.1
20260903195020 96 156 7.8 13.0 0.00 0.00 0.00 77 1016.9
20260903194515 95 225 7.8 10.4 0.00 0.00 0.00 77 1016.9
20260903194010 95 225 7.8 10.4 0.00 0.00 0.00 77 1017.2
20260903193507 95 157 6.1 6.1 0.00 0.00 0.00 77 1017.3
20260903193001 95 209 1.7 7.8 0.00 0.00 0.00 77 1017.3
20260903192459 95 196 2.6 5.2 0.00 0.00 0.00 77 1017.4
20260903191953 95 231 7.8 7.8 0.00 0.00 0.00 77 1017.4
20260903191449 95 267 6.1 6.1 0.00 0.00 0.00 77 1017.7
20260903190949 95 177 4.3 6.1 0.00 0.00 0.00 77 1017.8
20260903190443 94 97 0.0 5.2 0.00 0.00 0.00 77 1017.6
20260903185943 95 205 6.1 7.8 0.00 0.00 0.00 77 1017.9
20260903185439 93 219 3.5 3.5 0.00 0.00 0.00 77 1017.8
20260903184939 94 217 3.5 6.1 0.00 0.00 0.00 77 1018.1
20260903184436 93 199 3.5 3.5 0.00 0.00 0.00 77 1017.9
20260903183930 94 229 4.3 4.3 0.00 0.00 0.00 77 1018.0
20260903183425 94 229 4.3 6.1 0.00 0.00 0.00 77 1018.0
20260903182924 94 245 3.5 8.7 0.00 0.00 0.00 77 1018.1
20260903182423 94 245 3.5 8.7 0.00 0.00 0.00 77 1018.2
20260903181918 94 197 5.2 5.2 0.00 0.00 0.00 77 1018.4
20260903181413 93 199 1.7 3.5 0.00 0.00 0.00 77 1018.3
20260903180912 93 197 1.7 4.3 0.00 0.00 0.00 77 1018.3
20260903180407 93 234 2.6 2.6 0.00 0.00 0.00 77 1018.5
20260903175907 93 234 2.6 2.6 0.00 0.00 0.00 77 1018.7
20260903175401 93 234 2.6 2.6 0.00 0.00 0.00 77 1018.7
20260903174855 93 246 7.0 7.0 0.00 0.00 0.00 77 1018.7
20260903174350 93 214 2.6 4.3 0.00 0.00 0.00 77 1018.6
20260903173844 92 180 1.7 8.7 0.00 0.00 0.00 77 1018.7
20260903173340 91 221 4.3 8.7 0.00 0.00 0.00 77 1018.8
20260903172836 91 168 0.0 5.2 0.00 0.00 0.00 76 1019.1
20260903172330 91 168 0.0 5.2 0.00 0.00 0.00 76 1019.1
20260903171826 91 168 0.0 5.2 0.00 0.00 0.00 76 1018.8
20260903171321 91 168 0.0 5.2 0.00 0.00 0.00 76 1019.2
20260903170820 91 168 0.0 5.2 0.00 0.00 0.00 76 1019.3
20260903170316 91 168 0.0 5.2 0.00 0.00 0.00 76 1019.3
20260903165814 91 168 0.0 5.2 0.00 0.00 0.00 76 1019.4
20260903165309 91 168 0.0 5.2 0.00 0.00 0.00 76 1019.3
20260903164809 91 240 4.3 5.2 0.00 0.00 0.00 76 1019.3
20260903164304 90 252 5.2 9.6 0.00 0.00 0.00 76 1019.5
20260903163803 90 197 3.5 5.2 0.00 0.00 0.00 76 1019.4
20260903163300 89 199 4.3 4.3 0.00 0.00 0.00 76 1019.4
20260903162756 90 255 2.6 13.0 0.00 0.00 0.00 76 1019.4
20260903162252 90 246 3.5 6.1 0.00 0.00 0.00 76 1019.4
20260903161747 90 134 6.1 7.0 0.00 0.00 0.00 76 1019.8
20260903161243 90 134 6.1 7.0 0.00 0.00 0.00 76 1019.6
20260903160738 90 230 2.6 7.8 0.00 0.00 0.00 76 1019.8
20260903160237 89 199 4.3 9.6 0.00 0.00 0.00 76 1019.6
20260903155736 89 199 4.3 9.6 0.00 0.00 0.00 76 1019.7
20260903155231 89 199 4.3 9.6 0.00 0.00 0.00 76 1019.7
20260903154726 89 196 4.3 11.3 0.00 0.00 0.00 76 1019.7
20260903154222 89 263 3.5 7.8 0.00 0.00 0.00 76 1019.7
20260903153718 90 180 0.0 7.0 0.00 0.00 0.00 76 1019.7
20260903153214 89 221 3.5 7.8 0.00 0.00 0.00 76 1019.7
20260903152710 89 227 2.6 8.7 0.00 0.00 0.00 76 1019.7
20260903152206 88 235 7.0 10.4 0.00 0.00 0.00 76 1020.0
20260903151705 89 232 7.0 7.0 0.00 0.00 0.00 76 1019.7
20260903151200 88 241 7.0 7.8 0.00 0.00 0.00 76 1019.9
20260903150655 87 244 5.2 11.3 0.00 0.00 0.00 76 1019.8
20260903150150 88 210 3.5 9.6 0.00 0.00 0.00 76 1019.8
20260903145649 88 254 3.5 7.0 0.00 0.00 0.00 76 1019.9
20260903145145 88 195 1.7 6.1 0.00 0.00 0.00 76 1019.6
20260903144643 87 227 7.0 10.4 0.00 0.00 0.00 76 1019.6
20260903144140 87 243 3.5 8.7 0.00 0.00 0.00 76 1019.5
20260903143636 86 237 2.6 8.7 0.00 0.00 0.00 76 1019.8
20260903143131 86 250 3.5 8.7 0.00 0.00 0.00 76 1019.6
20260903142627 86 254 3.5 5.2 0.00 0.00 0.00 76 1019.8
20260903142123 86 239 2.6 3.5 0.00 0.00 0.00 76 1019.8
20260903141618 86 240 0.9 3.5 0.00 0.00 0.00 76 1019.6
20260903141108 85 252 1.7 5.2 0.00 0.00 0.00 76 1019.8
20260903140604 85 231 0.0 5.2 0.00 0.00 0.00 76 1020.0
20260903140059 85 199 1.7 3.5 0.00 0.00 0.00 76 1019.7
20260903135555 84 203 2.6 4.3 0.00 0.00 0.00 76 1019.8
20260903135055 84 180 1.7 2.6 0.00 0.00 0.00 76 1019.8
20260903134554 83 208 2.6 2.6 0.00 0.00 0.00 75 1020.0
20260903134050 83 193 2.6 3.5 0.00 0.00 0.00 75 1020.1
20260903133547 0 0.0 0.0 0.00 0.00 0.00 1020.0
20260903133043 0 0.0 0.0 0.00 0.00 0.00 1020.2
20260903132537 0 0.0 0.0 0.00 0.00 0.00 1019.9
20260903132033 0 0.0 0.0 0.00 0.00 0.00 1020.2
20260903131532 0 0.0 0.0 0.00 0.00 0.00 1020.0
20260903131031 0 0.0 0.0 0.00 0.00 0.00 1020.1
20260903130526 0 0.0 0.0 0.00 0.00 0.00 1020.0
20260903130021 0 0.0 0.0 0.00 0.00 0.00 1020.0
20260903125519 0 0.0 0.0 0.00 0.00 0.00 1019.9
20260903125015 0 0.0 0.0 0.00 0.00 0.00 1020.1
20260903124509 0 0.0 0.0 0.00 0.00 0.00 1019.8
20260903124009 0 0.0 0.0 0.00 0.00 0.00 1020.0
20260903123504 0 0.0 0.0 0.00 0.00 0.00 1019.9
20260903123002 0 0.0 0.0 0.00 0.00 0.00 1019.9
20260903122456 0 0.0 0.0 0.00 0.00 0.00 1019.9
20260903121956 0 0.0 0.0 0.00 0.00 0.00 1019.7
20260903121450 0 0.0 0.0 0.00 0.00 0.00 1019.8
20260903120947 0 0.0 0.0 0.00 0.00 0.00 1019.6
20260903120445 0 0.0 0.0 0.00 0.00 0.00 1019.8
20260903115944 0 0.0 0.0 0.00 0.00 0.00 1019.6
20260903115443 0 0.0 0.0 0.00 0.00 0.00 1019.8
20260903114938 0 0.0 0.0 0.00 0.00 0.00 1019.6
20260903114434 0 0.0 0.0 0.00 0.00 0.00 1019.6
20260903113929 0 0.0 0.0 0.00 0.00 0.00 1019.5
20260903113425 0 0.0 0.0 0.00 0.00 0.00 1019.5
20260903112921 0 0.0 0.0 0.00 0.00 0.00 1019.5
20260903112416 0 0.0 0.0 0.00 0.00 0.00 1019.5
20260903111915 0 0.0 0.0 0.00 0.00 0.00 1019.4
20260903111415 0 0.0 0.0 0.00 0.00 0.00 1019.3
20260903110911 0 0.0 0.0 0.00 0.00 0.00 1019.3
20260903110407 0 0.0 0.0 0.00 0.00 0.00 1019.2
20260903105901 0 0.0 0.0 0.00 0.00 0.00 1019.5
20260903105357 0 0.0 0.0 0.00 0.00 0.00 1019.4
20260903104856 0 0.0 0.0 0.00 0.00 0.00 1019.2
20260903104350 0 0.0 0.0 0.00 0.00 0.00 1019.2
20260903103848 0 0.0 0.0 0.00 0.00 0.00 1019.4
20260903103344 0 0.0 0.0 0.00 0.00 0.00 1019.1
20260903102838 0 0.0 0.0 0.00 0.00 0.00 1019.1
20260903102333 0 0.0 0.0 0.00 0.00 0.00 1019.2
20260903101833 0 0.0 0.0 0.00 0.00 0.00 1019.1
20260903101328 0 0.0 0.0 0.00 0.00 0.00 1019.2
20260903100823 0 0.0 0.0 0.00 0.00 0.00 1018.8
20260903100317 0 0.0 0.0 0.00 0.00 0.00 1019.1
20260903095815 0 0.0 0.0 0.00 0.00 0.00 1018.9
20260903095309 0 0.0 0.0 0.00 0.00 0.00 1019.1
20260903094804 0 0.0 0.0 0.00 0.00 0.00 1019.1
20260903094259 0 0.0 0.0 0.00 0.00 0.00 1018.8
20260903093755 0 0.0 0.0 0.00 0.00 0.00 1018.9
20260903093249 0 0.0 0.0 0.00 0.00 0.00 1019.1
20260903092744 0 0.0 0.0 0.00 0.00 0.00 1018.9
20260903092239 0 0.0 0.0 0.00 0.00 0.00 1018.9
20260903091738 0 0.0 0.0 0.00 0.00 0.00 1018.8
20260903091232 0 0.0 0.0 0.00 0.00 0.00 1018.9
20260903090728 0 0.0 0.0 0.00 0.00 0.00 1018.7
20260903090226 0 0.0 0.0 0.00 0.00 0.00 1018.8
20260903085726 0 0.0 0.0 0.00 0.00 0.00 1018.8
20260903085221 0 0.0 0.0 0.00 0.00 0.00 1018.8
20260903084719 0 0.0 0.0 0.00 0.00 0.00 1018.8
20260903084214 0 0.0 0.0 0.00 0.00 0.00 1018.6
20260903083710 0 0.0 0.0 0.00 0.00 0.00 1018.7
20260903083209 0 0.0 0.0 0.00 0.00 0.00 1018.7
20260903082703 0 0.0 0.0 0.00 0.00 0.00 1018.7
20260903082159 0 0.0 0.0 0.00 0.00 0.00 1018.7
20260903081653 0 0.0 0.0 0.00 0.00 0.00 1018.9
20260903081150 0 0.0 0.0 0.00 0.00 0.00 1018.7
20260903080645 0 0.0 0.0 0.00 0.00 0.00 1018.7
20260903080143 0 0.0 0.0 0.00 0.00 0.00 1018.5
20260903075642 0 0.0 0.0 0.00 0.00 0.00 1018.5
20260903075137 0 0.0 0.0 0.00 0.00 0.00 1018.5
20260903074636 0 0.0 0.0 0.00 0.00 0.00 1018.7
20260903074132 0 0.0 0.0 0.00 0.00 0.00 1018.6
20260903073627 0 0.0 0.0 0.00 0.00 0.00 1018.8
20260903073122 0 0.0 0.0 0.00 0.00 0.00 1018.7
20260903072618 0 0.0 0.0 0.00 0.00 0.00 1018.6
20260903072114 0 0.0 0.0 0.00 0.00 0.00 1018.5
20260903071611 0 0.0 0.0 0.00 0.00 0.00 1018.8
20260903071111 0 0.0 0.0 0.00 0.00 0.00 1018.7
20260903070605 0 0.0 0.0 0.00 0.00 0.00 1018.7
20260903065600 0 0.0 0.0 0.00 0.00 0.00 1018.8
20260903065055 0 0.0 0.0 0.00 0.00 0.00 1018.9
20260903064554 0 0.0 0.0 0.00 0.00 0.00 1019.1
20260903064050 0 0.0 0.0 0.00 0.00 0.00 1019.1
20260903063545 0 0.0 0.0 0.00 0.00 0.00 1018.9
20260903063041 0 0.0 0.0 0.00 0.00 0.00 1018.7
20260903062536 0 0.0 0.0 0.00 0.00 0.00 1019.1
20260903062031 0 0.0 0.0 0.00 0.00 0.00 1018.8
20260903061527 0 0.0 0.0 0.00 0.00 0.00 1019.1
20260903061026 0 0.0 0.0 0.00 0.00 0.00 1018.9
20260903060526 0 0.0 0.0 0.00 0.00 0.00 1018.9
20260903060021 0 0.0 0.0 0.00 0.00 0.00 1018.8
20260903055518 0 0.0 0.0 0.00 0.00 0.00 1018.9
20260903055017 0 0.0 0.0 0.00 0.00 0.00 1018.9
20260903054513 0 0.0 0.0 0.00 0.00 0.00 1018.7
20260903054008 0 0.0 0.0 0.00 0.00 0.00 1018.9
20260903053503 0 0.0 0.0 0.00 0.00 0.00 1018.9
20260903052959 0 0.0 0.0 0.00 0.00 0.00 1018.7
20260903052454 0 0.0 0.0 0.00 0.00 0.00 1018.7
20260903051950 0 0.0 0.0 0.00 0.00 0.00 1018.7
20260903051445 0 0.0 0.0 0.00 0.00 0.00 1018.7
20260903050941 0 0.0 0.0 0.00 0.00 0.00 1018.7
20260903050440 0 0.0 0.0 0.00 0.00 0.00 1018.7
20260903045934 0 0.0 0.0 0.00 0.00 0.00 1018.6
20260903045430 0 0.0 0.0 0.00 0.00 0.00 1018.5
20260903044926 0 0.0 0.0 0.00 0.00 0.00 1018.7
20260903044427 0 0.0 0.0 0.00 0.00 0.00 1018.7
20260903043923 0 0.0 0.0 0.00 0.00 0.00 1018.4
20260903043419 0 0.0 0.0 0.00 0.00 0.00 1018.6
20260903042917 0 0.0 0.0 0.00 0.00 0.00 1018.5
20260903042413 0 0.0 0.0 0.00 0.00 0.00 1018.6
20260903041908 0 0.0 0.0 0.00 0.00 0.00 1018.8
20260903041404 0 0.0 0.0 0.00 0.00 0.00 1018.6
20260903040900 0 0.0 0.0 0.00 0.00 0.00 1018.8
20260903040359 0 0.0 0.0 0.00 0.00 0.00 1018.7
20260903035855 0 0.0 0.0 0.00 0.00 0.00 1018.8
20260903035350 0 0.0 0.0 0.00 0.00 0.00 1018.7
20260903034846 0 0.0 0.0 0.00 0.00 0.00 1018.7
20260903034341 0 0.0 0.0 0.00 0.00 0.00 1018.7
20260903033836 0 0.0 0.0 0.00 0.00 0.00 1018.5
20260903033331 0 0.0 0.0 0.00 0.00 0.00 1018.6
20260903032830 0 0.0 0.0 0.00 0.00 0.00 1018.6
20260903032327 0 0.0 0.0 0.00 0.00 0.00 1018.4
20260903031822 0 0.0 0.0 0.00 0.00 0.00 1018.6
20260903031321 0 0.0 0.0 0.00 0.00 0.00 1018.5
20260903030817 0 0.0 0.0 0.00 0.00 0.00 1018.6
20260903030313 0 0.0 0.0 0.00 0.00 0.00 1018.3
20260903025808 0 0.0 0.0 0.00 0.00 0.00 1018.7
20260903025306 0 0.0 0.0 0.00 0.00 0.00 1018.6
20260903024758 0 0.0 0.0 0.00 0.00 0.00 1018.7
20260903024257 0 0.0 0.0 0.00 0.00 0.00 1018.4
20260903023753 0 0.0 0.0 0.00 0.00 0.00 1018.5
20260903023249 0 0.0 0.0 0.00 0.00 0.00 1018.3
20260903022748 0 0.0 0.0 0.00 0.00 0.00 1018.4
20260903022248 0 0.0 0.0 0.00 0.00 0.00 1018.4
20260903021747 0 0.0 0.0 0.00 0.00 0.00 1018.1
20260903021242 0 0.0 0.0 0.00 0.00 0.00 1018.1
20260903020737 0 0.0 0.0 0.00 0.00 0.00 1018.1
20260903020231 0 0.0 0.0 0.00 0.00 0.00 1018.2
20260903015727 0 0.0 0.0 0.00 0.00 0.00 1017.8
20260903015222 0 0.0 0.0 0.00 0.00 0.00 1018.0
20260903014718 0 0.0 0.0 0.00 0.00 0.00 1017.8
20260903014217 0 0.0 0.0 0.00 0.00 0.00 1017.9
20260903013712 0 0.0 0.0 0.00 0.00 0.00 1017.7
20260903013211 0 0.0 0.0 0.00 0.00 0.00 1017.7
20260903012709 0 0.0 0.0 0.00 0.00 0.00 1017.7
20260903012204 0 0.0 0.0 0.00 0.00 0.00 1017.7
20260903011659 0 0.0 0.0 0.00 0.00 0.00 1017.5
20260903011158 0 0.0 0.0 0.00 0.00 0.00 1017.3
20260903010654 0 0.0 0.0 0.00 0.00 0.00 1017.3
20260903010153 0 0.0 0.0 0.00 0.00 0.00 1017.4
20260903005653 0 0.0 0.0 0.00 0.00 0.00 1017.4
20260903005148 0 0.0 0.0 0.00 0.00 0.00 1017.5
20260903004643 0 0.0 0.0 0.00 0.00 0.00 1017.3
20260903004138 0 0.0 0.0 0.00 0.00 0.00 1017.2
20260903003634 0 0.0 0.0 0.00 0.00 0.00 1017.4
20260903003129 0 0.0 0.0 0.00 0.00 0.00 1017.1
20260903002624 0 0.0 0.0 0.00 0.00 0.00 1017.2
20260903002119 0 0.0 0.0 0.00 0.00 0.00 1017.2
20260903001613 0 0.0 0.0 0.00 0.00 0.00 1017.2
20260903001113 0 0.0 0.0 0.00 0.00 0.00 1017.4
20260903000608 0 0.0 0.0 0.00 0.00 0.00 1017.6
20260902235601 0 0.0 0.0 0.00 0.00 0.00 1017.4
20260902235056 0 0.0 0.0 0.00 0.00 0.00 1017.3
20260902234550 0 0.0 0.0 0.00 0.00 0.00 1017.3
20260902234049 0 0.0 0.0 0.00 0.00 0.00 1017.3
20260902233544 0 0.0 0.0 0.00 0.00 0.00 1017.2
20260902233038 0 0.0 0.0 0.00 0.00 0.00 1017.3
20260902232537 0 0.0 0.0 0.00 0.00 0.00 1017.5
20260902232032 0 0.0 0.0 0.00 0.00 0.00 1017.4
20260902231526 0 0.0 0.0 0.00 0.00 0.00 1017.3